Find Starlink 11442

NORAD ID: 62885 Int'l Des: 2025-024 Owner: SPXS Country: US Constellation: starlink operational
LEOCIRCULAR

現在のビュー

3D地球を読み込み中...

About Starlink 11442

Starlink 11442 (NORAD 62885) is a starlink constellation satellite (v2 mini d2c) launched Feb 4, 2025 by SPXS of US. It operates in LEO, CIRCULAR orbit with a mass of 960.00 kg.

Starlink 11442について

説明を読み込み中...

次回通過

Passes for default location (London). Set your location on the main map for personalized predictions.

高度履歴

Loading altitude history...

軌道要素

1 62885U 25024G 26171.33083082 .00231719 00000-0 17450-2 0 9998
2 62885 42.9981 282.3890 0002027 266.8859 93.1776 15.71036879 79614
Epoch: Jun 20, 2026 • Age: 31 hours

現在のステータス

高度 358.4 km
速度 7.70 km/s
衛星直下点 42.18°N, 141.88°W
打ち上げ日 Feb 4, 2025
運用期間 1.3 years
タイプ internet

技術仕様

分類 Payload
質量 960.00 kg
乾燥質量 910.00 kg
総質量 960.00 kg
長さ 0.30 m
直径 4.10 m
スパン 29.00 m
形状 Box + pan
製造者 SPXS
バスタイプ Starlink V2MD
フェーズステータス In Orbit
所有者/国 SPXS/US

Most Searched